Terminal Aerodrome Forecast
Issued by NWS Mobile, AL

Home | Current Version | Previous Version | Text Only | Print | Product List | Glossary On
Versions: 1 2 3 4 5 6 7 8 9 10 11 12 13 14 15 16 17
000
FTUS44 KMOB 281124
TAFMOB
TAF
KMOB 281124Z 2812/2912 VRB03KT P6SM FEW090 FEW250
     FM281700 21008KT P6SM VCTS SCT040CB SCT250
     FM290100 17003KT P6SM SCT250=

USA.gov is the U.S. government's official web portal to all federal, state and local government web resources and services.